Location: ???? ???? ?????
(31.2680°N, 31.7283°E)
Time: 04:14:07
(UTC+00:00)

Cosmos 1943 - Pass Details

Date: 13 July 2020
Orbit: 835 x 848 km, 71.0° (Epoch: 11 August)

Event Time Altitude Azimuth Distance (km) Brightness Sun altitude
Exits shadow 20:56:06 37° 12° (NNE) 1,291 4.4 -35.0°
Drops below altitude 10° 20:59:25 10° 18° (NNE) 2,464 6.2 -35.2°
Sets 21:01:52 0° 19° (NNE) 3,400 7.0 -35.3°
